Powrót do katalogu

KUIPER-00410

AktywnyŁącznośćLEO
NORAD 68926·PAYLOAD·🇺🇸 United States

Wystrzelony Apr 30, 2026 z Guiana Space Centre

Loading…

Następne Przeloty (najbliższe 24 godziny)

TLE

ŚwieżeSource: CelesTrak SupGP

Epoka: Sep 14, 2026, 21:38 UTC

1 68926C 26098H   26257.90149306  .00004760  00000+0  62296-3 0  2571
2 68926  51.8982  18.9305 0001202 138.5412 211.3636 14.79934340    18

Śledź KUIPER-00410 w czasie rzeczywistym z AllMySat

Download on the App Store